Home   Weather   Tunis   Past weeks

Flag for Tunisia Past Weather in Tunis, Tunisia — Yesterday and Last 2 Weeks

Now
79 °F

Passing clouds.


Feels Like: 82 °F
Forecast: 82 / 104 °F
Wind: No wind

Location: Tunis-Carthage

Current Time: Jul 23, 2017 at 7:58:08 am

Latest Report: Jul 23, 2017 at 6:30 am


Visibility: N/A

Pressure: 29.98 "Hg

Humidity: 84%

Dew Point: 73 °F

Location of TunisLocation

Past Weather in Tunis — Graph

°F

Tunis Temperature Yesterday

Maximum temperature yesterday: 99 °F (at 12:30 pm)
Minimum temperature yesterday: 81 °F (at 3:00 am)
Average temperature yesterday: 88 °F

High & Low Weather Summary for the Past Weeks

 TemperatureHumidityPressure
High106 °F (Jul 11, 1:30 pm)89% (Jul 13, 2:30 am)30.09 "Hg (Jul 13, 2:30 am)
Low70 °F (Jul 9, 5:30 am)15% (Jul 8, 1:30 pm)29.80 "Hg (Jul 20, 5:00 pm)
Average85 °F50%29.95 "Hg
* Reported Jul 8 6:00 am — Jul 23 6:00 am, Tunis. Weather by CustomWeather, © 2017

Note: Actual official high and low records may vary slightly from our data, if they occured in-between our weather recording intervals... More about our weather records

Advertising

Tunis Weather History for the Previous 24 Hours

Scroll right to see more
 ConditionsComfort  
Time TempWeatherWind HumidityBarometerVisibility
6:00 am
Sun, Jul 23
79 °FPassing clouds.No wind89%29.95 "HgN/A
4:30 am77 °FPassing clouds.3 mph83%29.95 "HgN/A
3:30 am79 °FPassing clouds.5 mph79%29.95 "HgN/A
2:30 am81 °FPassing clouds.5 mph66%29.95 "HgN/A
2:00 am79 °FPassing clouds.6 mph79%29.95 "HgN/A
1:30 am79 °FPassing clouds.2 mph79%29.95 "HgN/A
1:00 am79 °FPassing clouds.2 mph84%29.95 "HgN/A
12:30 am84 °FPassing clouds.No wind70%29.95 "HgN/A
12:00 am84 °FPassing clouds.No wind70%29.95 "HgN/A
11:30 pm
Sat, Jul 22
84 °FPassing clouds.5 mph66%29.95 "HgN/A
11:00 pm84 °FPassing clouds.3 mph62%29.95 "HgN/A
10:30 pm84 °FPassing clouds.No wind62%29.95 "HgN/A
10:00 pm84 °FPassing clouds.2 mph62%29.95 "HgN/A
9:30 pm84 °FPassing clouds.No wind62%29.95 "HgN/A
8:30 pm86 °FPassing clouds.3 mph55%29.95 "HgN/A
8:00 pm90 °FPassing clouds.6 mph46%29.92 "HgN/A
7:30 pm88 °FPassing clouds.3 mph59%29.92 "HgN/A
7:00 pm88 °FPassing clouds.6 mph59%29.92 "HgN/A
6:30 pm86 °FPassing clouds.2 mph62%29.95 "HgN/A
6:00 pm88 °FPassing clouds.6 mph59%29.92 "HgN/A
5:30 pm88 °FPassing clouds.3 mph59%29.92 "HgN/A
5:00 pm88 °FPassing clouds.7 mph59%29.92 "HgN/A
4:00 pm91 °FPassing clouds.10 mph52%29.92 "HgN/A
3:30 pm91 °FPassing clouds.10 mph52%29.95 "HgN/A
3:00 pm95 °FPassing clouds.12 mph47%29.95 "HgN/A
2:30 pm93 °FPassing clouds.12 mph47%29.95 "HgN/A
2:00 pm93 °FPassing clouds.14 mph53%29.95 "HgN/A
1:30 pm93 °FPassing clouds.15 mph56%29.95 "HgN/A
1:00 pm97 °FPassing clouds.8 mph42%29.92 "HgN/A
12:30 pm99 °FPassing clouds.5 mph37%29.95 "HgN/A
12:00 pm97 °FPassing clouds.2 mph42%29.95 "HgN/A
11:30 am93 °FPassing clouds.3 mph44%29.95 "HgN/A
11:00 am93 °FPassing clouds.3 mph47%29.95 "HgN/A
10:30 am91 °FPassing clouds.6 mph49%29.95 "HgN/A
10:00 am91 °FPassing clouds.6 mph52%29.95 "HgN/A
9:30 am90 °FPassing clouds.No wind55%29.95 "HgN/A
8:30 am88 °FPassing clouds.3 mph55%29.95 "HgN/A
8:00 am86 °FPassing clouds.5 mph62%29.95 "HgN/A
7:30 am84 °FPassing clouds.3 mph66%29.92 "HgN/A
Weather by CustomWeather, © 2017

See weather overviewHow to use our weather pages